Terminal Aerodrome Forecast
Issued by NWS Wilmington, OH

Current Version | Previous Version | Text Only | Print | Product List | Glossary Off
Versions: 1 2 3 4 5 6 7 8 9 10 11 12 13 14 15 16 17 18 19 20 21 22 23 24 25 26

000
FTUS41 KILN 280822 AAA
TAFCVG
TAF AMD
KCVG 280822Z 2808/2912 17003KT 5SM BR BKN200
     FM280900 00000KT 2SM BR BKN200
     FM281300 12008KT P6SM BKN200
     FM290000 12009KT P6SM VCSH SCT050 OVC080
     FM290300 18010KT P6SM VCSH OVC050 WS020/21040KT
     FM290600 21010KT P6SM -SHRA OVC060
     FM290800 20009KT P6SM -SHRA OVC030=

USA.gov is the U.S. government's official web portal to all federal, state and local government web resources and services.